Time,TemperatureF,DewpointF,PressureIn,WindDirection,WindDirectionDegrees,WindSpeedMPH,WindSpeedGustMPH,Humidity,HourlyPrecipIn,Conditions,Clouds,dailyrainin,SoftwareType,DateUTC
2013-02-20 00:00:00,63.8,58.2,29.97,ESE,105,9.0,9.0,82,0.00,,,0.00,Wunderground v.1.15,2013-02-20 06:00:00,
2013-02-20 00:10:00,63.8,58.2,29.97,ESE,108,9.0,13.0,82,0.00,,,0.00,Wunderground v.1.15,2013-02-20 06:10:00,
2013-02-20 00:15:00,63.9,58.3,29.98,SSE,162,10.0,13.0,82,0.00,,,0.00,Wunderground v.1.15,2013-02-20 06:15:00,
2013-02-20 00:20:00,63.9,58.3,29.98,ESE,110,10.0,10.0,82,0.00,,,0.00,Wunderground v.1.15,2013-02-20 06:20:00,
2013-02-20 00:25:00,63.9,58.3,29.98,ESE,105,9.0,10.0,82,0.00,,,0.00,Wunderground v.1.15,2013-02-20 06:25:00,
2013-02-20 00:35:00,63.8,58.2,29.98,ESE,111,8.0,9.0,82,0.00,,,0.00,Wunderground v.1.15,2013-02-20 06:35:00,
2013-02-20 00:40:00,63.9,58.3,29.98,ESE,118,8.0,8.0,82,0.00,,,0.00,Wunderground v.1.15,2013-02-20 06:40:00,
2013-02-20 00:45:00,63.9,58.3,29.99,East,79,8.0,9.0,82,0.00,,,0.00,Wunderground v.1.15,2013-02-20 06:45:00,
2013-02-20 00:50:00,63.9,58.6,29.99,East,98,7.0,7.0,83,0.00,,,0.00,Wunderground v.1.15,2013-02-20 06:50:00,
2013-02-20 00:55:00,63.8,58.5,29.99,SE,124,6.0,8.0,83,0.00,,,0.00,Wunderground v.1.15,2013-02-20 06:55:00,
2013-02-20 01:00:00,63.8,58.5,29.98,ESE,103,6.0,6.0,83,0.00,,,0.00,Wunderground v.1.15,2013-02-20 07:00:00,
2013-02-20 01:10:00,63.7,58.8,29.98,ENE,78,6.0,6.0,84,0.00,,,0.00,Wunderground v.1.15,2013-02-20 07:10:00,
2013-02-20 01:15:00,63.7,58.8,29.99,East,90,6.0,6.0,84,0.00,,,0.00,Wunderground v.1.15,2013-02-20 07:15:00,
2013-02-20 01:20:00,63.6,58.7,29.99,East,90,5.0,5.0,84,0.00,,,0.00,Wunderground v.1.15,2013-02-20 07:20:00,
2013-02-20 01:25:00,63.6,59.0,29.99,ESE,119,4.0,6.0,85,0.00,,,0.00,Wunderground v.1.15,2013-02-20 07:25:00,
2013-02-20 01:30:00,63.5,58.9,29.98,East,99,5.0,7.0,85,0.00,,,0.00,Wunderground v.1.15,2013-02-20 07:30:00,
2013-02-20 01:40:00,63.4,59.1,29.98,ESE,112,4.0,5.0,86,0.00,,,0.00,Wunderground v.1.15,2013-02-20 07:40:00,
2013-02-20 01:45:00,63.4,59.1,29.98,East,88,4.0,5.0,86,0.00,,,0.00,Wunderground v.1.15,2013-02-20 07:45:00,
2013-02-20 01:50:00,63.3,59.0,29.98,ESE,117,3.0,3.0,86,0.00,,,0.00,Wunderground v.1.15,2013-02-20 07:50:00,
2013-02-20 01:55:00,63.3,59.0,29.98,East,88,3.0,3.0,86,0.00,,,0.00,Wunderground v.1.15,2013-02-20 07:55:00,
2013-02-20 02:00:00,63.4,59.1,29.97,East,100,3.0,4.0,86,0.00,,,0.00,Wunderground v.1.15,2013-02-20 08:00:00,
2013-02-20 02:10:00,63.7,59.4,29.97,East,101,4.0,4.0,86,0.00,,,0.00,Wunderground v.1.15,2013-02-20 08:10:00,
2013-02-20 02:15:00,63.7,59.4,29.98,ESE,122,3.0,4.0,86,0.00,,,0.00,Wunderground v.1.15,2013-02-20 08:15:00,
2013-02-20 02:20:00,63.8,59.5,29.98,East,92,2.0,2.0,86,0.00,,,0.00,Wunderground v.1.15,2013-02-20 08:20:00,
2013-02-20 02:25:00,63.8,59.5,29.98,ENE,77,3.0,3.0,86,0.00,,,0.00,Wunderground v.1.15,2013-02-20 08:25:00,
2013-02-20 02:30:00,63.9,59.6,29.98,ENE,78,2.0,2.0,86,0.00,,,0.00,Wunderground v.1.15,2013-02-20 08:30:00,
2013-02-20 02:35:00,63.9,59.6,29.98,East,94,2.0,2.0,86,0.00,,,0.00,Wunderground v.1.15,2013-02-20 08:35:00,
2013-02-20 02:40:00,64.0,59.7,29.98,East,101,2.0,2.0,86,0.00,,,0.00,Wunderground v.1.15,2013-02-20 08:40:00,
2013-02-20 02:50:00,63.9,59.6,29.98,ENE,75,2.0,2.0,86,0.00,,,0.00,Wunderground v.1.15,2013-02-20 08:50:00,
2013-02-20 02:55:00,63.9,59.6,29.98,ENE,59,2.0,4.0,86,0.00,,,0.00,Wunderground v.1.15,2013-02-20 08:55:00,
2013-02-20 03:00:00,63.9,59.6,29.98,ENE,75,2.0,2.0,86,0.00,,,0.00,Wunderground v.1.15,2013-02-20 09:00:00,
2013-02-20 03:10:00,63.9,59.6,29.97,ENE,77,3.0,5.0,86,0.00,,,0.00,Wunderground v.1.15,2013-02-20 09:10:00,
2013-02-20 03:20:00,63.9,60.0,29.98,NE,49,2.0,3.0,87,0.00,,,0.00,Wunderground v.1.15,2013-02-20 09:20:00,
2013-02-20 03:25:00,64.0,60.1,29.97,NE,39,3.0,3.0,87,0.00,,,0.00,Wunderground v.1.15,2013-02-20 09:25:00,
2013-02-20 03:30:00,64.0,60.1,29.97,ENE,78,3.0,3.0,87,0.00,,,0.00,Wunderground v.1.15,2013-02-20 09:30:00,
2013-02-20 03:35:00,64.0,60.1,29.97,NE,46,3.0,3.0,87,0.00,,,0.00,Wunderground v.1.15,2013-02-20 09:35:00,
2013-02-20 03:40:00,63.9,60.0,29.97,NE,46,3.0,7.0,87,0.00,,,0.00,Wunderground v.1.15,2013-02-20 09:40:00,
2013-02-20 03:45:00,64.0,60.1,29.98,ENE,70,3.0,7.0,87,0.00,,,0.00,Wunderground v.1.15,2013-02-20 09:45:00,
2013-02-20 03:55:00,64.1,59.8,29.97,NE,56,4.0,5.0,86,0.00,,,0.00,Wunderground v.1.15,2013-02-20 09:55:00,
2013-02-20 04:00:00,64.1,59.8,29.97,East,89,4.0,7.0,86,0.00,,,0.00,Wunderground v.1.15,2013-02-20 10:00:00,
2013-02-20 04:10:00,64.3,60.0,29.97,ENE,61,5.0,7.0,86,0.00,,,0.00,Wunderground v.1.15,2013-02-20 10:10:00,
2013-02-20 04:15:00,64.3,60.0,29.96,ENE,71,5.0,7.0,86,0.00,,,0.00,Wunderground v.1.15,2013-02-20 10:15:00,
2013-02-20 04:25:00,64.3,60.0,29.96,East,89,5.0,6.0,86,0.00,,,0.00,Wunderground v.1.15,2013-02-20 10:25:00,
2013-02-20 04:30:00,64.3,60.0,29.96,ESE,102,4.0,4.0,86,0.00,,,0.00,Wunderground v.1.15,2013-02-20 10:30:00,
2013-02-20 04:35:00,64.3,60.0,29.96,ENE,60,4.0,4.0,86,0.00,,,0.00,Wunderground v.1.15,2013-02-20 10:35:00,
2013-02-20 04:40:00,64.3,60.0,29.95,East,89,4.0,6.0,86,0.00,,,0.00,Wunderground v.1.15,2013-02-20 10:40:00,
2013-02-20 04:45:00,64.4,60.1,29.95,East,96,4.0,6.0,86,0.00,,,0.00,Wunderground v.1.15,2013-02-20 10:45:00,
2013-02-20 04:50:00,64.4,60.1,29.95,East,85,4.0,6.0,86,0.00,,,0.00,Wunderground v.1.15,2013-02-20 10:50:00,
2013-02-20 05:00:00,64.3,60.3,29.95,NNE,32,4.0,4.0,87,0.00,,,0.00,Wunderground v.1.15,2013-02-20 11:00:00,
2013-02-20 05:10:00,64.3,60.7,29.95,ENE,73,3.0,4.0,88,0.00,,,0.00,Wunderground v.1.15,2013-02-20 11:10:00,
2013-02-20 05:15:00,64.3,60.7,29.94,ENE,74,4.0,4.0,88,0.00,,,0.00,Wunderground v.1.15,2013-02-20 11:15:00,
2013-02-20 05:20:00,64.4,60.8,29.94,NE,49,4.0,6.0,88,0.00,,,0.00,Wunderground v.1.15,2013-02-20 11:20:00,
2013-02-20 05:30:00,64.6,61.0,29.94,NE,53,5.0,5.0,88,0.00,,,0.00,Wunderground v.1.15,2013-02-20 11:30:00,
2013-02-20 05:35:00,64.7,61.1,29.94,NE,53,6.0,6.0,88,0.00,,,0.00,Wunderground v.1.15,2013-02-20 11:35:00,
2013-02-20 05:40:00,64.8,61.2,29.94,East,101,6.0,8.0,88,0.00,,,0.00,Wunderground v.1.15,2013-02-20 11:40:00,
2013-02-20 05:45:00,64.8,61.2,29.93,East,92,6.0,8.0,88,0.00,,,0.00,Wunderground v.1.15,2013-02-20 11:45:00,
2013-02-20 05:50:00,64.8,61.2,29.93,East,98,7.0,7.0,88,0.00,,,0.00,Wunderground v.1.15,2013-02-20 11:50:00,
2013-02-20 05:55:00,64.8,61.2,29.92,East,96,7.0,7.0,88,0.00,,,0.00,Wunderground v.1.15,2013-02-20 11:55:00,
2013-02-20 06:00:00,64.8,61.2,29.92,East,98,8.0,11.0,88,0.00,,,0.00,Wunderground v.1.15,2013-02-20 12:00:00,
2013-02-20 06:10:00,64.8,61.5,29.92,NE,47,8.0,8.0,89,0.00,,,0.00,Wunderground v.1.15,2013-02-20 12:10:00,
2013-02-20 06:15:00,64.8,61.5,29.92,East,100,7.0,8.0,89,0.00,,,0.00,Wunderground v.1.15,2013-02-20 12:15:00,
2013-02-20 06:20:00,64.9,61.6,29.92,ESE,106,7.0,8.0,89,0.00,,,0.00,Wunderground v.1.15,2013-02-20 12:20:00,
2013-02-20 06:25:00,65.0,61.7,29.92,ENE,65,7.0,8.0,89,0.00,,,0.00,Wunderground v.1.15,2013-02-20 12:25:00,
2013-02-20 06:35:00,65.0,62.0,29.92,SE,131,6.0,7.0,90,0.00,,,0.00,Wunderground v.1.15,2013-02-20 12:35:00,
2013-02-20 06:40:00,65.1,62.1,29.91,ESE,115,6.0,6.0,90,0.00,,,0.00,Wunderground v.1.15,2013-02-20 12:40:00,
2013-02-20 06:45:00,65.1,62.1,29.91,East,96,7.0,7.0,90,0.00,,,0.00,Wunderground v.1.15,2013-02-20 12:45:00,
2013-02-20 06:50:00,65.2,62.2,29.91,East,95,7.0,8.0,90,0.00,,,0.00,Wunderground v.1.15,2013-02-20 12:50:00,
2013-02-20 06:55:00,65.2,62.2,29.91,ESE,119,6.0,8.0,90,0.00,,,0.00,Wunderground v.1.15,2013-02-20 12:55:00,
2013-02-20 07:00:00,65.3,62.3,29.92,SE,128,6.0,8.0,90,0.00,,,0.00,Wunderground v.1.15,2013-02-20 13:00:00,
2013-02-20 07:10:00,65.3,62.3,29.91,ESE,115,6.0,7.0,90,0.00,,,0.00,Wunderground v.1.15,2013-02-20 13:10:00,
2013-02-20 07:15:00,65.3,62.3,29.92,ESE,108,7.0,9.0,90,0.00,,,0.00,Wunderground v.1.15,2013-02-20 13:15:00,
2013-02-20 07:20:00,65.4,62.7,29.92,ESE,123,7.0,10.0,91,0.00,,,0.00,Wunderground v.1.15,2013-02-20 13:20:00,
2013-02-20 07:25:00,65.4,62.4,29.93,ESE,113,5.0,10.0,90,0.00,,,0.00,Wunderground v.1.15,2013-02-20 13:25:00,
2013-02-20 07:35:00,65.5,62.8,29.93,ESE,102,5.0,6.0,91,0.00,,,0.00,Wunderground v.1.15,2013-02-20 13:35:00,
2013-02-20 07:40:00,65.5,62.8,29.93,ESE,104,6.0,6.0,91,0.00,,,0.00,Wunderground v.1.15,2013-02-20 13:40:00,
2013-02-20 07:45:00,65.5,62.8,29.93,ENE,65,7.0,8.0,91,0.00,,,0.00,Wunderground v.1.15,2013-02-20 13:45:00,
2013-02-20 07:50:00,65.6,62.9,29.92,ESE,113,6.0,7.0,91,0.00,,,0.00,Wunderground v.1.15,2013-02-20 13:50:00,
2013-02-20 07:55:00,65.6,62.9,29.91,East,80,7.0,7.0,91,0.00,,,0.00,Wunderground v.1.15,2013-02-20 13:55:00,
2013-02-20 08:00:00,65.5,62.8,29.91,ENE,74,7.0,7.0,91,0.00,,,0.00,Wunderground v.1.15,2013-02-20 14:00:00,
2013-02-20 08:10:00,65.5,62.8,29.91,East,86,6.0,11.0,91,0.00,,,0.00,Wunderground v.1.15,2013-02-20 14:10:00,
2013-02-20 08:15:00,65.6,62.9,29.91,ESE,104,7.0,11.0,91,0.00,,,0.00,Wunderground v.1.15,2013-02-20 14:15:00,
2013-02-20 08:20:00,65.8,63.1,29.91,East,93,7.0,7.0,91,0.00,,,0.00,Wunderground v.1.15,2013-02-20 14:20:00,
2013-02-20 08:25:00,65.8,63.1,29.91,SSE,161,7.0,7.0,91,0.00,,,0.00,Wunderground v.1.15,2013-02-20 14:25:00,
2013-02-20 08:30:00,65.8,63.1,29.92,ESE,108,6.0,6.0,91,0.00,,,0.00,Wunderground v.1.15,2013-02-20 14:30:00,
2013-02-20 08:35:00,65.8,63.1,29.92,East,101,6.0,6.0,91,0.00,,,0.00,Wunderground v.1.15,2013-02-20 14:35:00,
2013-02-20 08:45:00,65.9,63.5,29.93,SE,134,5.0,5.0,92,0.00,,,0.00,Wunderground v.1.15,2013-02-20 14:45:00,
2013-02-20 08:50:00,66.1,63.7,29.93,ESE,118,5.0,5.0,92,0.00,,,0.00,Wunderground v.1.15,2013-02-20 14:50:00,
2013-02-20 08:55:00,66.2,63.8,29.93,ESE,103,4.0,5.0,92,0.00,,,0.00,Wunderground v.1.15,2013-02-20 14:55:00,
2013-02-20 09:00:00,66.6,64.2,29.92,ESE,121,5.0,6.0,92,0.00,,,0.00,Wunderground v.1.15,2013-02-20 15:00:00,
2013-02-20 09:10:00,67.0,64.3,29.92,ESE,118,6.0,6.0,91,0.00,,,0.00,Wunderground v.1.15,2013-02-20 15:10:00,
2013-02-20 09:15:00,67.1,64.4,29.91,East,93,6.0,6.0,91,0.00,,,0.00,Wunderground v.1.15,2013-02-20 15:15:00,
2013-02-20 09:20:00,67.1,64.4,29.92,SE,139,6.0,6.0,91,0.00,,,0.00,Wunderground v.1.15,2013-02-20 15:20:00,
2013-02-20 09:25:00,67.2,64.5,29.92,ESE,115,6.0,8.0,91,0.00,,,0.00,Wunderground v.1.15,2013-02-20 15:25:00,
2013-02-20 09:30:00,67.4,64.7,29.91,ESE,120,7.0,11.0,91,0.00,,,0.00,Wunderground v.1.15,2013-02-20 15:30:00,
2013-02-20 09:35:00,67.5,64.8,29.91,ESE,122,7.0,11.0,91,0.00,,,0.00,Wunderground v.1.15,2013-02-20 15:35:00,
2013-02-20 09:40:00,67.9,65.2,29.90,ESE,105,7.0,7.0,91,0.00,,,0.00,Wunderground v.1.15,2013-02-20 15:40:00,
2013-02-20 09:50:00,68.1,65.1,29.90,ESE,109,8.0,8.0,90,0.00,,,0.00,Wunderground v.1.15,2013-02-20 15:50:00,
2013-02-20 09:55:00,68.1,65.1,29.90,SE,134,9.0,9.0,90,0.00,,,0.00,Wunderground v.1.15,2013-02-20 15:55:00,
2013-02-20 10:00:00,68.1,65.1,29.90,ESE,105,8.0,9.0,90,0.00,,,0.00,Wunderground v.1.15,2013-02-20 16:00:00,
2013-02-20 10:10:00,68.4,65.7,29.89,East,96,8.0,8.0,91,0.00,,,0.00,Wunderground v.1.15,2013-02-20 16:10:00,
2013-02-20 10:15:00,68.7,66.0,29.88,SE,140,7.0,8.0,91,0.00,,,0.00,Wunderground v.1.15,2013-02-20 16:15:00,
2013-02-20 10:20:00,69.0,65.9,29.88,SE,136,8.0,8.0,90,0.00,,,0.00,Wunderground v.1.15,2013-02-20 16:20:00,
2013-02-20 10:25:00,69.4,66.3,29.87,ESE,117,6.0,11.0,90,0.00,,,0.00,Wunderground v.1.15,2013-02-20 16:25:00,
2013-02-20 10:30:00,69.7,66.3,29.87,SE,125,7.0,13.0,89,0.00,,,0.00,Wunderground v.1.15,2013-02-20 16:30:00,
2013-02-20 10:35:00,69.9,66.5,29.87,SE,129,8.0,14.0,89,0.00,,,0.00,Wunderground v.1.15,2013-02-20 16:35:00,
2013-02-20 10:40:00,70.2,66.8,29.88,South,172,8.0,8.0,89,0.00,,,0.00,Wunderground v.1.15,2013-02-20 16:40:00,
2013-02-20 10:45:00,70.3,66.9,29.88,South,191,8.0,11.0,89,0.00,,,0.00,Wunderground v.1.15,2013-02-20 16:45:00,
2013-02-20 10:55:00,70.5,66.8,29.88,SSW,203,9.0,9.0,88,0.00,,,0.00,Wunderground v.1.15,2013-02-20 16:55:00,
2013-02-20 11:00:00,70.6,66.9,29.88,SSE,156,10.0,10.0,88,0.00,,,0.00,Wunderground v.1.15,2013-02-20 17:00:00,
2013-02-20 11:10:00,70.7,66.6,29.87,ESE,120,9.0,9.0,87,0.00,,,0.00,Wunderground v.1.15,2013-02-20 17:10:00,
2013-02-20 11:15:00,70.7,66.6,29.88,SSE,161,8.0,9.0,87,0.00,,,0.00,Wunderground v.1.15,2013-02-20 17:15:00,
2013-02-20 11:20:00,70.9,66.8,29.88,SE,132,7.0,7.0,87,0.00,,,0.00,Wunderground v.1.15,2013-02-20 17:20:00,
2013-02-20 11:25:00,70.9,66.8,29.88,South,184,7.0,7.0,87,0.00,,,0.00,Wunderground v.1.15,2013-02-20 17:25:00,
2013-02-20 11:30:00,70.9,66.8,29.88,SSE,165,7.0,7.0,87,0.00,,,0.00,Wunderground v.1.15,2013-02-20 17:30:00,
2013-02-20 11:35:00,71.0,66.9,29.87,SE,127,7.0,7.0,87,0.00,,,0.00,Wunderground v.1.15,2013-02-20 17:35:00,
2013-02-20 11:40:00,71.0,66.9,29.87,SE,136,8.0,15.0,87,0.00,,,0.00,Wunderground v.1.15,2013-02-20 17:40:00,
2013-02-20 11:45:00,71.1,66.7,29.87,ESE,122,8.0,15.0,86,0.00,,,0.00,Wunderground v.1.15,2013-02-20 17:45:00,
2013-02-20 11:50:00,71.2,66.8,29.87,ESE,102,9.0,9.0,86,0.00,,,0.00,Wunderground v.1.15,2013-02-20 17:50:00,
2013-02-20 12:00:00,71.2,66.8,29.87,SSE,156,7.0,9.0,86,0.00,,,0.00,Wunderground v.1.15,2013-02-20 18:00:00,
2013-02-20 12:10:00,71.3,66.9,29.86,ESE,115,8.0,12.0,86,0.00,,,0.00,Wunderground v.1.15,2013-02-20 18:10:00,
2013-02-20 12:15:00,71.3,66.9,29.86,SSE,160,8.0,15.0,86,0.00,,,0.00,Wunderground v.1.15,2013-02-20 18:15:00,
2013-02-20 12:20:00,71.4,67.0,29.86,SSE,148,9.0,9.0,86,0.00,,,0.00,Wunderground v.1.15,2013-02-20 18:20:00,
2013-02-20 12:25:00,71.5,67.1,29.85,East,95,9.0,9.0,86,0.00,,,0.00,Wunderground v.1.15,2013-02-20 18:25:00,
2013-02-20 12:35:00,71.6,67.2,29.84,SE,134,9.0,9.0,86,0.00,,,0.00,Wunderground v.1.15,2013-02-20 18:35:00,
2013-02-20 12:40:00,71.8,67.4,29.84,East,98,7.0,14.0,86,0.00,,,0.00,Wunderground v.1.15,2013-02-20 18:40:00,
2013-02-20 12:45:00,72.0,67.6,29.83,SE,133,7.0,14.0,86,0.00,,,0.00,Wunderground v.1.15,2013-02-20 18:45:00,
2013-02-20 12:50:00,72.0,67.6,29.83,SE,131,9.0,9.0,86,0.00,,,0.00,Wunderground v.1.15,2013-02-20 18:50:00,
2013-02-20 12:55:00,72.0,67.6,29.83,ESE,113,9.0,9.0,86,0.00,,,0.00,Wunderground v.1.15,2013-02-20 18:55:00,
2013-02-20 13:00:00,72.0,67.6,29.82,SSE,164,9.0,9.0,86,0.00,,,0.00,Wunderground v.1.15,2013-02-20 19:00:00,
2013-02-20 13:10:00,72.2,67.4,29.82,SSE,159,7.0,7.0,85,0.00,,,0.00,Wunderground v.1.15,2013-02-20 19:10:00,
2013-02-20 13:15:00,72.3,67.5,29.82,East,96,7.0,7.0,85,0.00,,,0.00,Wunderground v.1.15,2013-02-20 19:15:00,
2013-02-20 13:20:00,72.2,67.4,29.81,SE,137,7.0,9.0,85,0.00,,,0.00,Wunderground v.1.15,2013-02-20 19:20:00,
2013-02-20 13:25:00,72.1,67.3,29.81,ESE,123,8.0,9.0,85,0.00,,,0.00,Wunderground v.1.15,2013-02-20 19:25:00,
2013-02-20 13:30:00,71.9,67.5,29.81,SE,133,8.0,8.0,86,0.00,,,0.00,Wunderground v.1.15,2013-02-20 19:30:00,
2013-02-20 13:40:00,71.6,67.2,29.81,South,172,8.0,11.0,86,0.00,,,0.00,Wunderground v.1.15,2013-02-20 19:40:00,
2013-02-20 13:45:00,71.5,67.4,29.80,South,174,7.0,11.0,87,0.00,,,0.00,Wunderground v.1.15,2013-02-20 19:45:00,
2013-02-20 13:50:00,71.5,67.4,29.80,East,97,7.0,7.0,87,0.00,,,0.00,Wunderground v.1.15,2013-02-20 19:50:00,
2013-02-20 13:55:00,71.6,67.5,29.80,SSE,151,8.0,11.0,87,0.00,,,0.00,Wunderground v.1.15,2013-02-20 19:55:00,
2013-02-20 14:00:00,71.7,67.3,29.80,SE,134,8.0,14.0,86,0.00,,,0.00,Wunderground v.1.15,2013-02-20 20:00:00,
2013-02-20 14:10:00,71.7,67.3,29.79,ESE,108,7.0,10.0,86,0.00,,,0.00,Wunderground v.1.15,2013-02-20 20:10:00,
2013-02-20 14:15:00,71.7,67.6,29.79,ESE,113,6.0,10.0,87,0.00,,,0.00,Wunderground v.1.15,2013-02-20 20:15:00,
2013-02-20 14:20:00,71.8,67.7,29.79,SE,125,7.0,7.0,87,0.00,,,0.00,Wunderground v.1.15,2013-02-20 20:20:00,
2013-02-20 14:25:00,71.8,67.7,29.78,South,177,8.0,8.0,87,0.00,,,0.00,Wunderground v.1.15,2013-02-20 20:25:00,
2013-02-20 14:30:00,71.8,67.7,29.78,SSE,158,7.0,7.0,87,0.00,,,0.00,Wunderground v.1.15,2013-02-20 20:30:00,
2013-02-20 14:35:00,71.7,67.3,29.78,SE,137,6.0,9.0,86,0.00,,,0.00,Wunderground v.1.15,2013-02-20 20:35:00,
2013-02-20 14:45:00,71.0,66.9,29.77,East,79,7.0,11.0,87,0.00,,,0.00,Wunderground v.1.15,2013-02-20 20:45:00,
2013-02-20 14:50:00,70.7,67.0,29.77,ESE,117,7.0,12.0,88,0.00,,,0.00,Wunderground v.1.15,2013-02-20 20:50:00,
2013-02-20 14:55:00,70.7,67.0,29.76,East,81,7.0,12.0,88,0.00,,,0.00,Wunderground v.1.15,2013-02-20 20:55:00,
2013-02-20 15:00:00,70.7,67.0,29.76,SE,129,7.0,8.0,88,0.00,,,0.00,Wunderground v.1.15,2013-02-20 21:00:00,
2013-02-20 15:10:00,71.3,67.2,29.75,ESE,122,8.0,8.0,87,0.00,,,0.00,Wunderground v.1.15,2013-02-20 21:10:00,
2013-02-20 15:20:00,71.7,67.6,29.75,SE,129,9.0,10.0,87,0.00,,,0.00,Wunderground v.1.15,2013-02-20 21:20:00,
2013-02-20 15:25:00,71.9,67.5,29.75,ESE,103,8.0,10.0,86,0.00,,,0.00,Wunderground v.1.15,2013-02-20 21:25:00,
2013-02-20 15:30:00,72.2,67.8,29.74,SE,131,8.0,10.0,86,0.00,,,0.00,Wunderground v.1.15,2013-02-20 21:30:00,
2013-02-20 15:35:00,72.3,67.9,29.74,SE,139,9.0,10.0,86,0.00,,,0.00,Wunderground v.1.15,2013-02-20 21:35:00,
2013-02-20 15:40:00,72.3,67.9,29.74,SE,125,9.0,17.0,86,0.00,,,0.00,Wunderground v.1.15,2013-02-20 21:40:00,
2013-02-20 15:50:00,72.4,68.0,29.74,SE,127,8.0,11.0,86,0.00,,,0.00,Wunderground v.1.15,2013-02-20 21:50:00,
2013-02-20 15:55:00,72.3,67.9,29.73,ESE,121,8.0,11.0,86,0.00,,,0.00,Wunderground v.1.15,2013-02-20 21:55:00,
2013-02-20 16:00:00,71.9,67.5,29.73,SE,129,8.0,8.0,86,0.00,,,0.00,Wunderground v.1.15,2013-02-20 22:00:00,
2013-02-20 16:10:00,71.8,67.4,29.73,SSE,166,8.0,13.0,86,0.00,,,0.00,Wunderground v.1.15,2013-02-20 22:10:00,
2013-02-20 16:15:00,71.9,67.8,29.73,SE,134,9.0,13.0,87,0.00,,,0.00,Wunderground v.1.15,2013-02-20 22:15:00,
2013-02-20 16:25:00,72.1,67.7,29.72,ESE,122,8.0,15.0,86,0.00,,,0.00,Wunderground v.1.15,2013-02-20 22:25:00,
2013-02-20 16:30:00,72.0,67.6,29.72,SSE,166,9.0,10.0,86,0.00,,,0.00,Wunderground v.1.15,2013-02-20 22:30:00,
2013-02-20 16:35:00,72.0,67.9,29.72,SSE,147,8.0,13.0,87,0.00,,,0.00,Wunderground v.1.15,2013-02-20 22:35:00,
2013-02-20 16:40:00,71.9,67.8,29.72,ESE,123,8.0,8.0,87,0.00,,,0.00,Wunderground v.1.15,2013-02-20 22:40:00,
2013-02-20 16:45:00,71.8,67.4,29.72,ESE,122,7.0,9.0,86,0.00,,,0.00,Wunderground v.1.15,2013-02-20 22:45:00,
2013-02-20 16:55:00,71.5,67.4,29.72,SE,146,8.0,11.0,87,0.00,,,0.00,Wunderground v.1.15,2013-02-20 22:55:00,
2013-02-20 17:00:00,71.3,67.2,29.72,East,95,9.0,13.0,87,0.00,,,0.00,Wunderground v.1.15,2013-02-20 23:00:00,
2013-02-20 17:10:00,71.0,67.6,29.71,South,173,9.0,9.0,89,0.00,,,0.00,Wunderground v.1.15,2013-02-20 23:10:00,
2013-02-20 17:15:00,71.1,67.4,29.71,East,101,8.0,9.0,88,0.00,,,0.00,Wunderground v.1.15,2013-02-20 23:15:00,
2013-02-20 17:20:00,70.9,67.2,29.71,East,84,8.0,12.0,88,0.00,,,0.00,Wunderground v.1.15,2013-02-20 23:20:00,
2013-02-20 17:30:00,70.9,67.5,29.71,SSE,160,8.0,8.0,89,0.00,,,0.00,Wunderground v.1.15,2013-02-20 23:30:00,
2013-02-20 17:35:00,70.8,67.4,29.71,SE,140,8.0,9.0,89,0.00,,,0.00,Wunderground v.1.15,2013-02-20 23:35:00,
2013-02-20 17:40:00,70.7,67.3,29.71,SE,131,7.0,7.0,89,0.00,,,0.00,Wunderground v.1.15,2013-02-20 23:40:00,
2013-02-20 17:45:00,70.5,67.1,29.71,SE,131,7.0,7.0,89,0.00,,,0.00,Wunderground v.1.15,2013-02-20 23:45:00,
2013-02-20 17:50:00,70.3,66.9,29.70,SSE,151,8.0,8.0,89,0.00,,,0.00,Wunderground v.1.15,2013-02-20 23:50:00,
2013-02-20 18:00:00,69.9,66.8,29.71,ESE,116,7.0,11.0,90,0.00,,,0.00,Wunderground v.1.15,2013-02-21 00:00:00,
2013-02-20 18:09:00,69.9,66.8,29.71,ESE,112,6.0,6.0,90,0.00,,,0.00,Wunderground v.1.15,2013-02-21 00:09:00,
2013-02-20 18:15:00,70.0,67.3,29.71,SSE,161,6.0,7.0,91,0.00,,,0.00,Wunderground v.1.15,2013-02-21 00:15:00,
2013-02-20 18:20:00,70.2,67.4,29.71,SE,141,6.0,6.0,91,0.00,,,0.00,Wunderground v.1.15,2013-02-21 00:20:00,
2013-02-20 18:25:00,70.4,67.6,29.71,SSW,197,7.0,7.0,91,0.00,,,0.00,Wunderground v.1.15,2013-02-21 00:25:00,
2013-02-20 18:30:00,70.4,67.3,29.71,ESE,120,8.0,10.0,90,0.00,,,0.00,Wunderground v.1.15,2013-02-21 00:30:00,
2013-02-20 18:35:00,70.4,67.3,29.71,SE,131,8.0,12.0,90,0.00,,,0.00,Wunderground v.1.15,2013-02-21 00:35:00,
2013-02-20 18:40:00,70.3,67.5,29.70,SE,145,7.0,7.0,91,0.00,,,0.00,Wunderground v.1.15,2013-02-21 00:40:00,
2013-02-20 18:45:00,70.3,67.5,29.70,SE,145,7.0,7.0,91,0.00,,,0.00,Wunderground v.1.15,2013-02-21 00:45:00,
2013-02-20 18:50:00,70.2,67.4,29.71,SSW,208,6.0,6.0,91,0.00,,,0.00,Wunderground v.1.15,2013-02-21 00:50:00,
2013-02-20 18:55:00,70.2,67.4,29.71,ESE,104,6.0,9.0,91,0.00,,,0.00,Wunderground v.1.15,2013-02-21 00:55:00,
2013-02-20 19:00:00,70.2,67.4,29.71,SE,128,6.0,6.0,91,0.00,,,0.00,Wunderground v.1.15,2013-02-21 01:00:00,
2013-02-20 19:10:00,70.2,67.4,29.70,NE,49,5.0,6.0,91,0.00,,,0.00,Wunderground v.1.15,2013-02-21 01:10:00,
2013-02-20 19:15:00,70.2,67.4,29.70,SSE,162,5.0,6.0,91,0.00,,,0.00,Wunderground v.1.15,2013-02-21 01:15:00,
2013-02-20 19:20:00,70.1,67.3,29.70,SE,137,7.0,7.0,91,0.00,,,0.00,Wunderground v.1.15,2013-02-21 01:20:00,
2013-02-20 19:25:00,70.0,67.3,29.70,SSE,154,8.0,11.0,91,0.00,,,0.00,Wunderground v.1.15,2013-02-21 01:25:00,
2013-02-20 19:30:00,70.0,67.3,29.70,ESE,118,8.0,8.0,91,0.00,,,0.00,Wunderground v.1.15,2013-02-21 01:30:00,
2013-02-20 19:35:00,69.9,67.2,29.69,SE,145,7.0,8.0,91,0.00,,,0.00,Wunderground v.1.15,2013-02-21 01:35:00,
2013-02-20 19:40:00,70.0,67.3,29.70,SE,140,7.0,12.0,91,0.00,,,0.00,Wunderground v.1.15,2013-02-21 01:40:00,
2013-02-20 19:45:00,70.1,67.7,29.70,SE,145,7.0,12.0,92,0.00,,,0.00,Wunderground v.1.15,2013-02-21 01:45:00,
2013-02-20 19:50:00,70.2,67.4,29.70,SE,142,7.0,7.0,91,0.00,,,0.00,Wunderground v.1.15,2013-02-21 01:50:00,
2013-02-20 19:55:00,70.2,67.4,29.70,SE,143,6.0,10.0,91,0.00,,,0.00,Wunderground v.1.15,2013-02-21 01:55:00,
2013-02-20 20:00:00,70.2,67.4,29.70,SE,139,7.0,8.0,91,0.00,,,0.00,Wunderground v.1.15,2013-02-21 02:00:00,
2013-02-20 20:10:00,70.1,67.3,29.70,SE,144,7.0,7.0,91,0.00,,,0.00,Wunderground v.1.15,2013-02-21 02:10:00,
2013-02-20 20:15:00,70.1,67.3,29.71,SE,136,7.0,7.0,91,0.00,,,0.00,Wunderground v.1.15,2013-02-21 02:15:00,
2013-02-20 20:20:00,70.1,67.3,29.70,ESE,117,6.0,6.0,91,0.00,,,0.00,Wunderground v.1.15,2013-02-21 02:20:00,
2013-02-20 20:25:00,70.1,67.3,29.70,NE,37,6.0,6.0,91,0.00,,,0.00,Wunderground v.1.15,2013-02-21 02:25:00,
2013-02-20 20:30:00,70.1,67.3,29.70,SSE,155,6.0,6.0,91,0.00,,,0.00,Wunderground v.1.15,2013-02-21 02:30:00,
2013-02-20 20:35:00,70.1,67.3,29.70,ESE,111,6.0,7.0,91,0.00,,,0.00,Wunderground v.1.15,2013-02-21 02:35:00,
2013-02-20 20:40:00,70.1,67.3,29.70,SSE,152,8.0,8.0,91,0.00,,,0.00,Wunderground v.1.15,2013-02-21 02:40:00,
2013-02-20 20:45:00,70.1,67.3,29.70,SE,124,8.0,10.0,91,0.00,,,0.00,Wunderground v.1.15,2013-02-21 02:45:00,
2013-02-20 20:50:00,70.1,67.3,29.70,East,98,8.0,8.0,91,0.00,,,0.00,Wunderground v.1.15,2013-02-21 02:50:00,
2013-02-20 20:55:00,70.2,67.4,29.69,ESE,114,8.0,8.0,91,0.00,,,0.00,Wunderground v.1.15,2013-02-21 02:55:00,
2013-02-20 21:00:00,70.1,67.3,29.69,SE,124,8.0,8.0,91,0.00,,,0.00,Wunderground v.1.15,2013-02-21 03:00:00,
2013-02-20 21:10:00,70.1,67.3,29.69,East,80,6.0,6.0,91,0.00,,,0.00,Wunderground v.1.15,2013-02-21 03:10:00,
2013-02-20 21:20:00,70.0,67.3,29.69,SE,143,8.0,11.0,91,0.00,,,0.00,Wunderground v.1.15,2013-02-21 03:20:00,
2013-02-20 21:25:00,70.0,67.3,29.69,ESE,117,8.0,11.0,91,0.00,,,0.00,Wunderground v.1.15,2013-02-21 03:25:00,
2013-02-20 21:30:00,70.0,67.3,29.69,SE,125,8.0,8.0,91,0.00,,,0.00,Wunderground v.1.15,2013-02-21 03:30:00,
2013-02-20 21:35:00,70.1,67.3,29.69,SE,131,8.0,8.0,91,0.00,,,0.00,Wunderground v.1.15,2013-02-21 03:35:00,
2013-02-20 21:40:00,70.0,67.3,29.69,ESE,121,7.0,11.0,91,0.00,,,0.00,Wunderground v.1.15,2013-02-21 03:40:00,
2013-02-20 21:45:00,70.0,67.3,29.69,East,95,7.0,11.0,91,0.00,,,0.00,Wunderground v.1.15,2013-02-21 03:45:00,
2013-02-20 21:50:00,70.0,67.3,29.69,SE,131,8.0,8.0,91,0.00,,,0.00,Wunderground v.1.15,2013-02-21 03:50:00,
2013-02-20 21:55:00,70.0,67.3,29.69,SE,136,9.0,14.0,91,0.00,,,0.00,Wunderground v.1.15,2013-02-21 03:55:00,
2013-02-20 22:05:00,69.9,67.2,29.69,SSE,158,7.0,9.0,91,0.00,,,0.00,Wunderground v.1.15,2013-02-21 04:05:00,
2013-02-20 22:10:00,69.9,67.2,29.68,SSE,159,8.0,8.0,91,0.00,,,0.00,Wunderground v.1.15,2013-02-21 04:10:00,
2013-02-20 22:15:00,69.8,67.1,29.68,ESE,122,8.0,8.0,91,0.00,,,0.00,Wunderground v.1.15,2013-02-21 04:15:00,
2013-02-20 22:25:00,69.8,67.4,29.68,ESE,122,7.0,7.0,92,0.00,,,0.00,Wunderground v.1.15,2013-02-21 04:25:00,
2013-02-20 22:30:00,69.9,67.5,29.68,SE,139,8.0,15.0,92,0.00,,,0.00,Wunderground v.1.15,2013-02-21 04:30:00,
2013-02-20 22:35:00,70.0,67.6,29.68,SE,125,7.0,15.0,92,0.00,,,0.00,Wunderground v.1.15,2013-02-21 04:35:00,
2013-02-20 22:40:00,70.2,67.8,29.68,SSE,163,8.0,8.0,92,0.00,,,0.00,Wunderground v.1.15,2013-02-21 04:40:00,
2013-02-20 22:45:00,70.2,67.4,29.67,SE,136,8.0,8.0,91,0.00,,,0.00,Wunderground v.1.15,2013-02-21 04:45:00,
2013-02-20 22:55:00,70.3,67.5,29.66,ESE,120,8.0,11.0,91,0.00,,,0.00,Wunderground v.1.15,2013-02-21 04:55:00,
2013-02-20 23:00:00,70.2,67.4,29.66,SSE,166,9.0,9.0,91,0.00,,,0.00,Wunderground v.1.15,2013-02-21 05:00:00,
2013-02-20 23:05:00,70.3,67.5,29.66,SW,214,9.0,9.0,91,0.00,,,0.00,Wunderground v.1.15,2013-02-21 05:05:00,
2013-02-20 23:10:00,70.3,67.5,29.66,SE,132,9.0,9.0,91,0.00,,,0.00,Wunderground v.1.15,2013-02-21 05:10:00,
2013-02-20 23:15:00,70.2,67.4,29.66,SE,141,8.0,9.0,91,0.00,,,0.00,Wunderground v.1.15,2013-02-21 05:15:00,
2013-02-20 23:20:00,70.4,68.0,29.66,SE,143,9.0,12.0,92,0.00,,,0.00,Wunderground v.1.15,2013-02-21 05:20:00,
2013-02-20 23:30:00,70.5,67.7,29.65,East,99,9.0,9.0,91,0.00,,,0.00,Wunderground v.1.15,2013-02-21 05:30:00,
2013-02-20 23:35:00,70.6,67.8,29.65,SE,146,9.0,9.0,91,0.00,,,0.00,Wunderground v.1.15,2013-02-21 05:35:00,
2013-02-20 23:40:00,70.5,67.7,29.65,SE,127,8.0,8.0,91,0.00,,,0.00,Wunderground v.1.15,2013-02-21 05:40:00,
2013-02-20 23:45:00,70.6,67.8,29.65,South,190,9.0,9.0,91,0.00,,,0.00,Wunderground v.1.15,2013-02-21 05:45:00,
2013-02-20 23:50:00,70.6,67.8,29.65,SSE,164,9.0,9.0,91,0.00,,,0.00,Wunderground v.1.15,2013-02-21 05:50:00,
2013-02-20 23:55:00,70.7,67.9,29.65,SE,138,9.0,9.0,91,0.00,,,0.00,Wunderground v.1.15,2013-02-21 05:55:00,